Location: Newark
(36.0000°N, 138.0000°E)
Time: 06:56:20
(UTC+00:00)

Tiangong 2 - Pass Details

Date: 21 March 2019
Orbit: 378 x 389 km, 42.8° (Epoch: 21 April)

Event Time Altitude Azimuth Distance (km) Brightness Sun altitude
Exits shadow 19:30:20 31° 318° (NW) 690 2.1 -16.8°
Maximum altitude 19:31:32 56° 22° (NNE) 458 1.6 -16.6°
Drops below altitude 10° 19:34:38 10° 102° (ESE) 1,397 4.9 -16.0°
Sets 19:36:44 0° 107° (ESE) 2,251 6.1 -15.5°
